Dewpoint
35 40 41 38 32 34 48 47 46 48 56 56 56 58 59 61 59 59 59 59 60 61 62 63 64 65 66 68 69 70 70 72 70 70 70 70 69 71 72 71 73 73 74 73
35 39 39 36 31 30 34 40 38 54 56 56 56 56 58 59 58 59 59 59 59 60 61 62 63 65 66 68 69 71 71 72 71 70 71 70 71 70 71 72 73 73 73 74
31 36 34 34 32 29 30 30 50 48 56 55 54 53 55 58 60 59 59 59 59 59 60 62 63 64 65 67 69 70 71 72 72 72 71 72 72 71 71 72 71 71 73 73
36 31 32 29 30 30 29 29 39 53 49 49 52 46 51 55 58 60 57 57 57 59 60 62 63 64 65 66 68 70 71 71 71 73 71 73 72 73 69 70 71 72 73 72
31 30 30 30 29 30 30 28 34 51 48 49 48 48 47 55 55 59 60 58 55 57 59 61 63 64 65 66 67 69 71 71 71 72 73 70 74 70 70 70 73 74 74 74
29 28 29 29 29 32 31 35 41 46 45 37 45 43 42 52 54 56 59 60 59 56 58 62 64 65 66 66 67 68 71 71 72 72 72 73 72 73 70 71 70 70 71 72
28 26 25 25 24 29 26 22 31 31 34 26 42 45 41 53 56 57 56 59 61 58 59 62 64 65 66 66 67 67 70 71 71 71 72 72 72 73 73 72 70 70 72 74
25 23 26 25 25 23 26 23 26 28 31 31 44 37 42 54 57 60 60 58 61 60 59 61 64 66 66 66 66 67 68 70 70 70 71 72 73 70 70 72 71 70 73 76
24 22 26 24 25 24 24 21 25 30 32 31 40 45 52 56 58 59 58 58 60 61 60 61 64 65 66 66 67 68 69 70 70 69 70 72 72 72 71 73 73 72 73 71
28 24 26 27 22 25 25 25 22 26 30 29 41 43 43 53 56 58 59 60 62 63 62 64 64 65 66 67 68 69 69 69 71 70 70 72 73 73 72 72 71 72 72 73
27 27 26 29 27 23 26 25 29 27 30 26 30 38 53 54 56 57 58 59 60 62 63 64 66 66 67 68 68 69 70 70 71 70 71 71 72 72 73 72 72 72 73 72
27 25 27 25 26 26 25 31 31 21 33 39 35 37 52 54 57 57 58 59 60 61 62 63 65 67 67 67 68 69 70 71 71 71 70 70 72 72 73 73 73 73 73 73
29 27 25 24 25 28 30 28 31 34 38 39 26 32 52 54 56 56 56 58 58 59 60 62 64 65 67 67 68 68 69 70 69 69 68 68 69 72 73 73 73 73 73 74
38 27 29 23 27 28 32 35 27 27 24 35 32 41 50 52 53 53 53 56 57 57 59 60 61 63 65 68 69 69 69 69 69 69 68 68 69 70 71 71 71 72 73 74
32 30 30 30 30 30 32 38 39 27 29 29 34 37 47 52 53 53 54 54 54 56 57 59 59 60 62 63 65 67 68 68 68 67 67 68 68 70 69 70 70 70 71 71
33 34 32 30 31 33 28 34 42 42 42 42 43 41 48 52 52 51 53 53 53 55 56 56 57 59 60 61 63 63 64 65 68 68 68 68 68 66 66 68 69 69 69 69
34 31 35 30 32 33 30 31 34 39 44 43 37 45 50 50 50 51 52 53 52 53 54 54 55 56 57 59 60 60 62 62 62 63 63 64 64 64 64 64 65 65 65 65
35 35 33 29 34 26 32 34 37 37 42 45 46 47 50 50 51 50 51 51 52 52 53 54 54 56 55 56 56 56 56 57 57 56 56 57 59 59 61 61 61 61 63 63
34 35 31 31 29 28 29 30 30 32 34 45 46 47 47 47 48 48 49 50 51 52 52 53 54 54 52 52 53 52 51 51 52 52 52 54 54 54 54 56 57 58 59 61
31 37 32 32 24 23 29 33 36 35 31 46 47 47 46 46 47 48 48 48 49 50 51 52 52 51 50 50 49 48 49 48 47 48 49 50 50 51 52 53 55 57 58 60
30 32 29 31 28 27 34 36 38 32 34 44 47 48 47 47 48 48 48 49 50 51 51 51 51 50 48 48 48 47 47 46 46 47 48 49 49 48 51 52 53 53 53 54
30 34 35 32 30 30 38 36 32 38 42 43 48 48 47 46 47 47 48 49 50 51 51 51 51 50 50 50 48 47 46 46 47 47 47 47 48 45 46 50 50 50 50 51
38 37 43 35 36 39 42 42 42 41 42 44 46 48 48 46 47 47 48 49 50 49 49 48 48 49 48 48 48 47 48 48 47 47 46 47 46 46 47 47 47 45 47 44
37 38 41 40 41 42 42 41 40 42 42 44 45 47 47 47 47 47 48 48 48 48 48 47 47 47 47 48 47 47 47 47 46 46 45 45 45 45 44 41 42 41 41 41
37 39 39 38 38 41 42 43 42 41 43 45 46 47 47 47 48 48 48 49 48 48 48 48 48 47 47 47 47 45 45 45 43 44 43 43 42 43 42 42 41 41 43 42
38 39 41 41 41 43 41 44 44 42 42 45 45 46 48 48 49 49 49 49 49 48 48 48 48 48 47 47 46 46 45 44 42 41 40 40 40 40 39 39 39 42 42 41
Lifted_Index
4 2 1 0 0 0 -0 -1 -1 -2 -2 -2 -2 -2 -2 -2 -2 -2 -2 -2 -1 -1 -1 -1 -1 -1 -1 -2 -2 -2 -2 -3 -3 -3 -3 -3 -4 -4 -4 -4 -4 -5 -5 -5
4 3 1 0 0 0 -0 -1 -2 -2 -2 -2 -1 -1 -1 -2 -2 -2 -2 -2 -2 -1 -1 -1 -1 -1 -1 -2 -2 -2 -3 -3 -3 -3 -3 -3 -4 -4 -4 -4 -4 -5 -5 -5
4 3 1 0 -0 -0 -0 -1 -2 -2 -2 -2 -1 -1 -1 -2 -2 -2 -2 -2 -2 -2 -1 -1 -1 -1 -2 -2 -2 -2 -2 -2 -2 -3 -3 -3 -3 -4 -4 -4 -4 -4 -5 -5
4 3 2 0 -0 -0 0 0 -1 -2 -2 -2 -1 -0 -1 -2 -2 -3 -2 -2 -2 -2 -2 -2 -2 -2 -2 -2 -2 -2 -2 -2 -2 -3 -3 -3 -3 -3 -4 -4 -4 -4 -5 -5
3 3 3 1 1 0 1 1 0 -2 -2 -2 -1 -1 -1 -2 -2 -3 -3 -2 -2 -1 -2 -2 -2 -2 -2 -2 -2 -2 -2 -2 -2 -2 -3 -3 -3 -3 -4 -4 -4 -5 -5 -5
3 4 4 3 3 2 1 1 0 -1 -1 -1 -1 -1 -1 -2 -2 -2 -2 -2 -2 -1 -1 -2 -2 -2 -2 -2 -2 -2 -2 -2 -2 -2 -3 -3 -3 -3 -3 -4 -4 -4 -5 -5
3 4 4 4 4 4 2 1 -0 -0 -0 -0 -1 -1 -1 -1 -2 -2 -2 -2 -2 -1 -1 -1 -2 -2 -2 -2 -2 -2 -2 -2 -2 -2 -3 -3 -3 -3 -3 -3 -4 -4 -4 -5
4 4 4 5 5 4 3 1 0 0 0 0 -1 -1 -1 -1 -2 -2 -2 -2 -2 -2 -1 -1 -2 -2 -2 -1 -1 -2 -2 -2 -2 -2 -2 -3 -3 -3 -3 -3 -4 -4 -4 -4
4 4 4 4 4 4 4 2 1 1 0 0 -1 -1 -1 -2 -2 -2 -2 -2 -2 -2 -2 -2 -2 -2 -2 -1 -1 -2 -2 -2 -2 -2 -2 -2 -3 -3 -3 -3 -3 -4 -4 -4
3 3 3 4 4 4 4 3 2 1 1 0 -0 -1 -1 -2 -2 -3 -2 -2 -3 -3 -2 -2 -2 -2 -2 -1 -1 -1 -2 -2 -2 -2 -2 -2 -3 -3 -3 -3 -3 -3 -4 -4
2 2 2 3 3 3 3 3 2 1 1 1 0 -0 -1 -2 -2 -2 -3 -3 -3 -3 -2 -2 -2 -2 -2 -1 -1 -1 -2 -2 -2 -2 -2 -2 -2 -3 -3 -3 -3 -4 -4 -4
1 1 1 2 2 2 3 3 3 2 1 0 0 0 -0 -1 -2 -2 -3 -3 -3 -3 -3 -2 -2 -2 -2 -2 -1 -1 -2 -2 -2 -2 -1 -1 -2 -3 -3 -4 -4 -4 -4 -4
0 0 0 1 1 2 2 3 3 2 1 0 0 0 -0 -1 -2 -2 -3 -3 -3 -3 -3 -3 -2 -2 -2 -2 -2 -2 -2 -2 -2 -1 -1 -1 -1 -2 -3 -3 -3 -4 -4 -4
-0 -0 -0 0 1 2 2 2 2 2 1 1 0 -0 -1 -1 -2 -3 -3 -3 -3 -3 -3 -2 -2 -3 -3 -3 -3 -2 -2 -2 -1 -1 -1 -0 -1 -1 -2 -2 -2 -3 -3 -4
-0 -0 -0 0 0 1 1 1 1 1 1 0 -0 -0 -1 -1 -2 -3 -3 -3 -3 -2 -2 -2 -2 -3 -3 -3 -3 -3 -2 -2 -2 -1 -1 -0 -0 -1 -1 -1 -1 -1 -2 -2
-0 0 0 0 0 0 0 0 -0 -0 0 -0 -0 -0 -1 -1 -2 -3 -3 -3 -2 -2 -2 -2 -2 -3 -3 -3 -3 -3 -2 -2 -2 -1 -1 -1 -1 -0 -0 -0 -0 -0 -1 -1
0 0 0 0 -0 -0 0 0 0 -0 -0 -0 -0 -0 -0 -1 -2 -3 -3 -2 -2 -2 -1 -2 -2 -2 -3 -3 -2 -2 -2 -2 -2 -1 -1 -1 -1 -0 0 0 0 0 0 0
1 1 1 0 0 0 0 1 1 1 0 -0 -0 -0 -1 -2 -2 -2 -2 -2 -2 -1 -1 -1 -2 -2 -2 -2 -2 -2 -2 -2 -1 -1 -0 -1 -0 0 0 0 1 1 1 1
1 1 1 1 1 1 1 1 1 1 1 0 -0 -1 -1 -2 -2 -2 -2 -2 -1 -1 -1 -1 -1 -2 -2 -2 -1 -1 -1 -1 -1 -1 -0 -0 -0 0 0 0 1 1 1 2
2 2 2 2 1 2 2 2 2 1 1 0 -1 -1 -2 -2 -2 -2 -2 -1 -1 -0 -0 -0 0 -0 -0 0 1 1 1 1 1 1 1 1 1 1 1 1 1 2 2 2
2 2 2 2 2 2 3 3 2 2 1 1 -0 -1 -1 -2 -2 -2 -1 -1 -0 0 1 2 2 2 3 3 4 4 4 5 5 5 5 5 6 5 5 5 5 4 3 2
2 2 2 2 2 3 3 3 2 2 2 1 0 -0 -1 -1 -1 -1 -1 -1 -0 1 2 3 4 4 5 6 7 7 8 9 9 10 10 10 10 10 10 10 9 8 7 6
2 2 2 2 2 3 3 3 3 3 3 2 1 0 -0 -1 -1 -1 -1 -0 0 2 3 5 5 6 6 7 8 8 9 10 11 11 12 12 12 12 13 13 12 12 11 10
3 3 2 2 3 3 3 3 3 3 3 3 2 1 0 -0 -1 -0 -0 0 1 2 4 5 5 6 6 7 8 8 10 10 11 11 12 13 13 13 14 14 14 14 13 13
4 3 3 3 3 3 3 3 3 3 3 3 3 2 1 0 0 -0 0 1 1 2 3 4 5 5 6 7 8 9 11 11 12 12 13 13 14 14 14 14 14 14 14 14
4 3 3 3 3 2 2 3 3 3 3 3 3 2 2 1 1 0 0 1 1 2 2 3 4 4 5 7 8 10 11 12 12 13 13 13 14 14 14 14 14 14 15 15